DW7574 Weather Reports


Display with metric or nautical units.
time (UTC)temp
F
wind
direction
speed
MPH
gust
MPH
rain 1hr
in
rain 24hr
in
rain mn
in
humidity
%
barometer
mb
20260508121503 41 305 0.0 0.0 0.00 0.00 0.00 100 1016.9
20260508120059 39 305 0.0 0.0 0.00 0.00 0.00 100 1016.9
20260508114555 0 0.0 0.0 0.00 0.00 0.00 1016.8
20260508113105 0 0.0 0.0 0.00 0.00 0.00 1016.7
20260508111547 0 0.0 0.0 0.00 0.00 0.00 1016.5
20260508110051 0 0.0 0.0 0.00 0.00 0.00 1016.4
20260508104539 0 0.0 0.0 0.00 0.00 0.00 1016.3
20260508103033 0 0.0 0.0 0.00 0.00 0.00 1016.3
20260508101528 0 0.0 0.0 0.00 0.00 0.00 1016.1
20260508100024 0 0.0 0.0 0.00 0.00 0.00 1016.0
20260508094519 0 0.0 0.0 0.00 0.00 0.00 1015.9
20260508093015 0 0.0 0.0 0.00 0.00 0.00 1015.8
20260508091513 0 0.0 0.0 0.00 0.00 0.00 1015.8
20260508090009 0 0.0 0.0 0.00 0.00 0.00 1015.6
20260508084502 0 0.0 0.0 0.00 0.00 0.00 1015.7
20260508083057 0 0.0 0.0 0.00 0.00 0.00 1015.6
20260508081601 0 0.0 0.0 0.00 0.00 0.00 1015.6
20260508080049 0 0.0 0.0 0.00 0.00 0.00 1015.6
20260508074545 0 0.0 0.0 0.00 0.00 0.00 1015.5
20260508073040 0 0.0 0.0 0.00 0.00 0.00 1015.5
20260508071546 0 0.0 0.0 0.00 0.00 0.00 1015.5
20260508070031 0 0.0 0.0 0.00 0.00 0.00 1015.4
20260508064529 0 0.0 0.0 0.00 0.00 0.00 1015.5
20260508063023 0 0.0 0.0 0.00 0.00 0.00 1015.5
20260508061519 0 0.0 0.0 0.00 0.00 0.00 1015.7
20260508060013 0 0.0 0.0 0.00 0.00 0.00 1015.7
20260508054510 0 0.0 0.0 0.00 0.00 0.00 1015.6
20260508053004 0 0.0 0.0 0.00 0.00 0.00 1015.5
20260508051600 0 0.0 0.0 0.00 0.00 0.00 1015.5
20260508050055 0 0.0 0.0 0.00 0.00 0.00 1015.5
20260508044556 0 0.0 0.0 0.00 0.00 0.00 1015.6
20260508043047 0 0.0 0.0 0.00 0.00 0.00 1015.5
20260508041608 0 0.0 0.0 0.00 0.00 0.00 1015.5
20260508040046 0 0.0 0.0 0.00 0.00 0.00 1015.6
20260508034536 45 305 0.0 0.0 0.00 0.00 0.00 8 1015.5
20260508033031 45 305 0.0 0.0 0.00 0.00 0.00 17 1015.5
20260508031527 46 305 0.0 0.0 0.00 0.00 0.00 32 1015.4
20260508030025 46 305 0.0 0.0 0.00 0.00 0.00 38 1015.3
20260508024519 47 305 0.0 0.0 0.00 0.00 0.00 48 1015.1
20260508023011 48 305 0.0 0.0 0.00 0.00 0.00 57 1014.8
20260508021512 49 305 0.0 0.0 0.00 0.00 0.00 60 1014.6
20260508020003 50 305 0.0 0.0 0.00 0.00 0.00 64 1014.4
20260508014600 51 305 0.0 0.0 0.00 0.00 0.00 63 1014.2
20260508013055 52 305 0.0 0.0 0.00 0.00 0.00 63 1014.0
20260508011556 54 305 0.0 0.0 0.00 0.00 0.00 59 1013.8
20260508010047 55 305 0.0 0.0 0.00 0.00 0.00 53 1013.6
20260508004544 56 305 0.0 0.0 0.00 0.00 0.00 51 1013.4
20260508003039 57 305 0.0 0.0 0.00 0.00 0.00 48 1013.3
20260508001537 58 305 0.0 0.0 0.00 0.00 0.00 48 1013.1
20260508000031 59 305 0.0 2.0 0.00 0.00 0.00 46 1012.8
20260507234525 59 305 0.0 1.0 0.00 0.00 0.00 46 1012.6
20260507233031 60 305 0.0 2.0 0.00 0.00 0.00 48 1012.4
20260507231517 61 305 0.0 1.0 0.00 0.00 0.00 48 1012.3
20260507230011 61 306 0.0 2.0 0.00 0.00 0.00 52 1012.3
20260507224507 62 355 0.0 2.0 0.00 0.00 0.00 53 1012.3
20260507223003 62 212 1.0 8.0 0.00 0.00 0.00 49 1012.1
20260507221558 63 316 0.0 7.0 0.00 0.00 0.00 48 1012.1
20260507220053 64 314 0.0 9.0 0.00 0.00 0.00 48 1012.0
20260507214558 64 319 0.0 3.0 0.00 0.00 0.00 51 1011.7
20260507213056 65 318 0.0 5.0 0.00 0.00 0.00 47 1011.7
20260507211540 65 324 0.0 7.0 0.00 0.00 0.00 48 1011.6
20260507210045 64 344 0.0 7.0 0.00 0.00 0.00 49 1011.4
20260507204532 66 340 0.0 6.0 0.00 0.00 0.00 44 1011.5
20260507203027 67 346 0.0 6.0 0.00 0.00 0.00 48 1011.4
20260507201523 67 319 0.0 6.0 0.00 0.00 0.00 44 1011.5
20260507200018 67 322 0.0 7.0 0.00 0.00 0.00 45 1011.6
20260507194516 67 286 0.0 13.0 0.00 0.00 0.00 48 1011.7
20260507193015 65 5 0.0 8.0 0.00 0.00 0.00 48 1011.7
20260507191509 66 321 0.0 6.0 0.00 0.00 0.00 47 1012.1
20260507190004 67 323 1.0 8.0 0.00 0.00 0.00 47 1012.2
20260507184558 68 355 1.0 8.0 0.00 0.00 0.00 46 1012.2
20260507183055 67 220 0.0 3.0 0.00 0.00 0.00 53 1012.4
20260507181555 65 324 0.0 8.0 0.00 0.00 0.00 50 1012.3
20260507180044 64 251 1.0 8.0 0.00 0.00 0.00 48 1012.5
20260507174552 63 34 1.0 9.0 0.00 0.00 0.00 54 1012.6
20260507173053 63 281 0.0 3.0 0.00 0.00 0.00 54 1012.8
20260507171541 63 307 0.0 6.0 0.00 0.00 0.00 54 1013.0
20260507170026 63 247 0.0 0.0 0.00 0.00 0.00 54 1013.1
20260507164529 62 309 1.0 8.0 0.00 0.00 0.00 53 1013.3
20260507163019 61 323 0.0 0.0 0.00 0.00 0.00 52 1013.3
20260507161515 61 323 0.0 6.0 0.00 0.00 0.00 54 1013.5
20260507160009 60 76 0.0 0.0 0.00 0.00 0.00 53 1013.7
20260507154605 61 76 0.0 1.0 0.00 0.00 0.00 53 1013.8
20260507153102 61 76 0.0 7.0 0.00 0.00 0.00 51 1013.7
20260507151601 59 75 0.0 1.0 0.00 0.00 0.00 52 1013.8
20260507150059 60 75 0.0 0.0 0.00 0.00 0.00 51 1013.9
20260507144551 59 76 0.0 8.0 0.00 0.00 0.00 50 1014.1
20260507143047 58 67 0.0 1.0 0.00 0.00 0.00 39 1014.0
20260507141550 56 67 0.0 2.0 0.00 0.00 0.00 31 1014.2
20260507140037 55 67 0.0 2.0 0.00 0.00 0.00 100 1014.3
20260507134530 54 67 0.0 0.0 0.00 0.00 0.00 100 1014.5
20260507133028 53 67 0.0 0.0 0.00 0.00 0.00 100 1014.5
20260507131529 52 67 0.0 0.0 0.00 0.00 0.00 100 1014.5
20260507130024 52 67 0.0 0.0 0.00 0.00 0.00 100 1014.6
20260507124517 51 67 0.0 0.0 0.00 0.00 0.00 100 1014.5
20260507123010 51 67 0.0 0.0 0.00 0.00 0.00 100 1014.4